Location: Ballingbuur
(53.0000°N, 5.7667°E)
Time: 20:48:04
(UTC+00:00)

Cosmos 405 Rocket - Pass Details

Date: 29 November 2020
Orbit: 489 x 554 km, 81.3° (Epoch: 25 January)

Event Time Altitude Azimuth Distance (km) Brightness Sun altitude
Rises 05:38:01 0° 195° (SSW) 2,561 6.3 -15.2°
Reaches altitude 10° 05:40:06 10° 196° (SSW) 1,689 5.3 -14.9°
Maximum altitude 05:43:48 78° 284° (WNW) 517 2.5 -14.4°
Drops below altitude 10° 05:47:36 10° 11° (N) 1,732 5.3 -13.8°
Sets 05:49:46 0° 13° (NNE) 2,633 6.2 -13.5°
